This is the latest recevied weather packets stored in our database for station/object KF6FPU-15. If no packets are shown the sender has not sent any weather packets the latest 10 day(s).
| Time | Temp. | Humidity | Pressure | Rain* | Wind** | Luminosity | Snow |
|---|---|---|---|---|---|---|---|
| 1777862508 | 29.44° C | 19% | 1012.2 hPa | - | - | - | - |
| 1777861908 | 29.44° C | 19% | 1012.1 hPa | - | - | - | - |
| 1777861308 | 28.89° C | 19% | 1011.8 hPa | - | - | - | - |
| 1777860708 | 29.44° C | 19% | 1011.8 hPa | - | - | - | - |
| 1777860108 | 29.44° C | 19% | 1011.7 hPa | - | - | - | - |
| 1777859508 | 29.44° C | 19% | 1011.7 hPa | - | - | - | - |
| 1777858908 | 29.44° C | 19% | 1011.7 hPa | - | - | - | - |
| 1777858308 | 29.44° C | 19% | 1011.7 hPa | - | - | - | - |
| 1777857108 | 30° C | 19% | 1011.8 hPa | - | - | - | - |
| 1777856508 | 30° C | 19% | 1011.8 hPa | - | - | - | - |
| 1777855908 | 30° C | 19% | 1011.8 hPa | - | - | - | - |
| 1777855308 | 30° C | 19% | 1011.7 hPa | - | - | - | - |
| 1777854708 | 30° C | 18% | 1011.7 hPa | - | - | - | - |
| 1777854108 | 31.11° C | 19% | 1011.7 hPa | - | - | - | - |
| 1777853508 | 31.67° C | 19% | 1011.6 hPa | - | - | - | - |
| 1777852908 | 31.67° C | 18% | 1011.6 hPa | - | - | - | - |
| 1777852308 | 32.22° C | 18% | 1011.5 hPa | - | - | - | - |
| 1777851708 | 32.78° C | 18% | 1011.4 hPa | - | - | - | - |
| 1777850508 | 35.56° C | 18% | 1011.3 hPa | - | - | - | - |
| 1777849908 | 36.67° C | 17% | 1011.2 hPa | - | - | - | - |
| 1777849308 | 38.89° C | 17% | 1011.2 hPa | - | - | - | - |
| 1777848708 | 39.44° C | 17% | 1011.2 hPa | - | - | - | - |
| 1777848108 | 38.89° C | 17% | 1011.4 hPa | - | - | - | - |
| 1777847508 | 38.89° C | 17% | 1011.3 hPa | - | - | - | - |
| 1777846908 | 38.89° C | 17% | 1011.4 hPa | - | - | - | - |
* Rain since midnight (hover to see other rain measurements)
** Current wind speed in m/s (hover to see current wind gust speed)